Regional Weather Roundup
Issued by NWS

Home | Current Version | Previous Version | Text Only | Print | Product List | Glossary Off
Versions: 1 2 3 4 5 6 7 8 9 10 11 12 13 14 15 16 17 18 19 20 21 22 23 24 25 26 27 28 29 30 31 32 33 34 35 36 37 38 39 40 41 42 43 44 45 46 47 48 49 50

000
ASUS43 KLMK 090402
RWRKY
KENTUCKY REGIONAL WEATHER ROUNDUP
NATIONAL WEATHER SERVICE LOUISVILLE KY
1100 PM EST MON FEB 08 2016

NOTE "FAIR" INDICATES FEW OR NO CLOUDS BELOW 12,000 FEET
WITH NO SIGNIFICANT WEATHER AND/OR OBSTRUCTIONS TO VISIBILITY.

KYZ001>023-026-027-061>063-070>075-090500-
WESTERN AND SOUTH CENTRAL KENTUCKY

CITY           SKY/WX    TMP DP  RH WIND       PRES   REMARKS
PADUCAH        CLOUDY    27  19  72 NW7       29.93S WCI  19
HENDERSON      CLOUDY    23  18  80 W13       29.90F WCI  11
OWENSBORO      LGT SNOW  23  18  81 NW14      29.89F WCI  11
HOPKINSVILLE   FLURRIES  25  20  80 NW7       29.90F WCI  18
BOWLING GREEN  LGT SNOW  26  21  81 NW9       29.88S WCI  17
GLASGOW        NOT AVBL
$$

KYZ024-025-028>034-038-045-046-053-090500-
NORTH CENTRAL KENTUCKY

CITY           SKY/WX    TMP DP  RH WIND       PRES   REMARKS
LOUISVILLE/SDF LGT SNOW  24  19  81 W13       29.83R WCI  12
LOUISVILLE/LOU LGT SNOW  24  19  81 NW9       29.83S WCI  14
FORT KNOX      LGT SNOW  22  16  79 W12       29.81S WCI  10
$$

KYZ035>037-039>044-047>052-055>060-089>105-090500-
NORTHEAST KENTUCKY

CITY           SKY/WX    TMP DP  RH WIND       PRES   REMARKS
LEXINGTON      CLOUDY    26  21  81 W14       29.76F WCI  14
COVINGTON      LGT SNOW  23  20  88 W17       29.74R VSB 3/4 WCI   9
FRANKFORT      LGT SNOW  25  20  81 W6        29.77S WCI  18
$$

KYZ054-064>069-076>088-106>120-090500-
SOUTHEAST KENTUCKY

CITY           SKY/WX    TMP DP  RH WIND       PRES   REMARKS
JACKSON        LGT SNOW  28  24  85 W10G18    29.71S FOG     WCI  19
LONDON         LGT SNOW  27  22  81 W13       29.76F WCI  16
SOMERSET       NOT AVBL
MIDDLESBORO    NOT AVBL
MONTICELLO     FLURRIES  27  23  85 W14       29.83S WCI  16
$$




USA.gov is the U.S. government's official web portal to all federal, state and local government web resources and services.